Jackson, MI

5:59 AM EST on November 14, 2019 (GMT -0500)
Jackson County-Reynolds

Weather History for KJXN - June, 2019

Change the Weather History Date:

Friday, June 7, 2019

  Actual Average Record
Temperature  
Mean Temperature 67 °F 65 °F  
Max Temperature 80 °F 76 °F 92 °F (2011)
Min Temperature 54 °F 54 °F 39 °F (1977)
Degree Days  
Heating Degree Days 0 3  
Month to date heating degree days 21 24  
Since 1 June heating degree days 21 24  
Since 1 July heating degree days 6657 6626  
Cooling Degree Days 2 3  
Month to date cooling degree days 13 17  
Year to date cooling degree days 23 54  
Since 1 June cooling degree days 13 17  
Growing Degree Days 16 (Base 50)    
Moisture  
Dew Point 56 °F    
Average Humidity 70    
Maximum Humidity 100    
Minimum Humidity 40    
Precipitation  
Precipitation 0.00 in 0.11 in 1.49 in (1955)
Month to date precipitation 1.71 0.73  
Year to date precipitation 13.72 11.33  
Sea Level Pressure  
Sea Level Pressure 29.98 in    
Wind  
Wind Speed 6 mph (NE)    
Max Wind Speed 15 mph    
Max Gust Speed 22 mph    
Visibility 5 miles    
Events Fog    
T = Trace of Precipitation, MM = Missing Value Source: NWS Daily Summary

Daily Weather History Graph

Daily Weather History Graph

Search for Another Location

Airport or City:

Astronomy

Jun. 07, 2019 Rise Set
Actual Time 6:01 AM EDT 9:11 PM EDT
Civil Twilight 5:27 AM EDT 9:46 PM EDT
Nautical Twilight 4:43 AM EDT 10:30 PM EDT
Astronomical Twilight 3:50 AM EDT 11:23 PM EDT
Moon 10:19 AM EDT (6/7) 12:27 AM EDT (6/7)
Length of Visible Light 16h 18m
Length of Day
15h 10m
Waxing Crescent, 22% of the Moon is Illuminated
Jun 7
Waxing Crescent
Jun 10
First Quarter
Jun 17
Full
Jun 25
Last Quarter
Jul 2
New

Hourly Weather History & Observations

Time (EDT) Temp. Dew Point Humidity Pressure Visibility Wind Dir Wind Speed Gust Speed Precip Events Conditions
12:56 AM 62.1 °F 59.0 °F 90% 29.95 in 10.0 mi Calm Calm - N/A   Clear
1:56 AM 60.1 °F 59.0 °F 96% 29.94 in 6.0 mi Calm Calm - N/A   Clear
2:56 AM 59.0 °F 57.9 °F 96% 29.95 in 5.0 mi Calm Calm - N/A   Clear
3:13 AM 57.9 °F 57.9 °F 100% 29.95 in 1.8 mi Calm Calm - N/A   Clear
3:20 AM 57.0 °F 57.0 °F 100% 29.95 in 0.2 mi Calm Calm - N/A Fog Fog
3:34 AM 57.0 °F 57.0 °F 100% 29.95 in 0.8 mi Calm Calm - N/A   Clear
3:44 AM 57.0 °F 55.9 °F 96% 29.95 in 0.2 mi Calm Calm - N/A Fog Fog
3:56 AM 57.0 °F 57.0 °F 100% 29.94 in 0.5 mi Calm Calm - N/A Fog Fog
4:06 AM 55.0 °F 55.0 °F 100% 29.95 in 0.2 mi Calm Calm - N/A Fog Fog
4:19 AM 55.9 °F 55.9 °F 100% 29.95 in 0.2 mi Calm Calm - N/A Fog Fog
4:53 AM 55.4 °F 55.4 °F 100% 29.95 in 0.2 mi Calm Calm - N/A Fog Fog
4:56 AM 54.0 °F 54.0 °F 100% 29.95 in 0.5 mi Calm Calm - N/A Fog Fog
5:35 AM 55.9 °F 55.9 °F 100% 29.96 in 2.0 mi Calm Calm - N/A   Clear
5:43 AM 55.0 °F 55.0 °F 100% 29.96 in 0.8 mi Calm Calm - N/A   Clear
5:52 AM 55.4 °F 55.4 °F 100% 29.96 in 0.2 mi Calm Calm - N/A Fog Fog
5:56 AM 54.0 °F 54.0 °F 100% 29.96 in 0.2 mi Calm Calm - N/A Fog Fog
6:30 AM 54.0 °F 54.0 °F 100% 29.97 in 0.2 mi Calm Calm - N/A Fog Fog
6:35 AM 54.0 °F 54.0 °F 100% 29.97 in 1.0 mi Calm Calm - N/A   Mist
6:37 AM 54.0 °F 54.0 °F 100% 29.98 in 2.5 mi Calm Calm - N/A   Scattered Clouds
6:42 AM 54.0 °F 54.0 °F 100% 29.98 in 0.8 mi Calm Calm - N/A   Mostly Cloudy
6:56 AM 55.9 °F 55.9 °F 100% 29.97 in 0.2 mi Calm Calm - N/A Fog Fog
7:09 AM 57.0 °F 57.0 °F 100% 29.98 in 0.2 mi ENE 3.5 mph - N/A Fog Fog
7:25 AM 57.9 °F 57.9 °F 100% 29.99 in 0.8 mi Calm Calm - N/A   Mist
7:28 AM 57.9 °F 57.9 °F 100% 29.99 in 1.2 mi Calm Calm - N/A   Scattered Clouds
7:36 AM 59.0 °F 59.0 °F 100% 29.99 in 2.5 mi Calm Calm - N/A   Partly Cloudy
7:53 AM 60.8 °F 60.8 °F 100% 29.99 in 3.0 mi NE 3.5 mph - N/A   Clear
7:56 AM 60.1 °F 60.1 °F 100% 29.99 in 3.0 mi Calm Calm - N/A   Clear
8:56 AM 66.0 °F 61.0 °F 84% 30.01 in 6.0 mi NE 3.5 mph - N/A   Haze
9:56 AM 69.1 °F 62.1 °F 78% 30.01 in 10.0 mi NE 6.9 mph - N/A   Clear
10:56 AM 72.0 °F 60.1 °F 66% 30.01 in 10.0 mi NNE 10.4 mph - N/A   Clear
11:56 AM 75.0 °F 59.0 °F 57% 30.01 in 10.0 mi NNE 8.1 mph - N/A   Clear
12:56 PM 75.9 °F 57.9 °F 54% 30.01 in 10.0 mi ENE 10.4 mph 18.4 mph N/A   Partly Cloudy
1:56 PM 77.0 °F 57.9 °F 52% 30.00 in 10.0 mi NE 10.4 mph 17.3 mph N/A   Partly Cloudy
2:56 PM 78.1 °F 57.0 °F 48% 29.99 in 10.0 mi ENE 8.1 mph - N/A   Partly Cloudy
3:56 PM 77.0 °F 55.9 °F 48% 29.98 in 10.0 mi NE 11.5 mph - N/A   Mostly Cloudy
4:56 PM 78.1 °F 55.9 °F 46% 29.98 in 10.0 mi NE 6.9 mph 17.3 mph N/A   Partly Cloudy
5:56 PM 79.0 °F 55.0 °F 44% 29.97 in 10.0 mi NE 10.4 mph - N/A   Clear
6:56 PM 77.0 °F 52.0 °F 42% 29.97 in 10.0 mi NE 12.7 mph - N/A   Clear
7:56 PM 75.0 °F 51.1 °F 43% 29.98 in 10.0 mi NNE 9.2 mph - N/A   Clear
8:56 PM 69.1 °F 52.0 °F 54% 29.99 in 10.0 mi NE 5.8 mph - N/A   Clear
9:56 PM 66.9 °F 51.1 °F 57% 30.01 in 10.0 mi NE 5.8 mph - N/A   Clear
10:56 PM 63.0 °F 48.9 °F 60% 30.03 in 10.0 mi NE 5.8 mph - N/A   Clear
11:56 PM 60.1 °F 50.0 °F 69% 30.04 in 10.0 mi NE 3.5 mph - N/A   Clear